LFBO

Toulouse-Blagnac Airport

Airport
ICAO code
LFBO
IATA Code
TLS
Summary
ICAO Region
EUR
ICAO Territory
Location

Blagnac, Midi-Pyrenees

Serving
Toulouse
Elevation
497 ft
Coordinates
43° 37' 35" N , 1° 21' 52" E
KCC
Metar
LFBO 240930Z AUTO 27017KT 9999 FEW047 OVC056 10/02 Q1019 NOSIG

Description

International airport serving city of Toulouse, France.

Climatology

Temperate Marine climate/Oceanic climate (Köppen climate classification Cfb). Moderately cool summer and comparatively warm winter with a temperature range of only 14°C. Prevailing south-westerly winds from the Atlantic Ocean.

Runways

Designator Length Width Surface Rops
14L/32R 3000 45 ASP Yes/Yes
14R/32L 3500 45 ASP Yes/Yes

Airport map

Aerial View

Airport accidents

SKYbrary Partners:

Safety knowledge contributed by: